Regional Weather Roundup
Issued by NWS Midland/Odessa, TX

Skip options and go directly to product.
Home | Oldest Version | Previous Version | Current Version | All | Graphics & Text | Save Text | Print | Product List | Glossary On

Skip product version selection by date and time.   
979
ASUS44 KMAF 190110
RWRMAF
MIDLAND AREA WEATHER ROUNDUP
NATIONAL WEATHER SERVICE MIDLAND TX
700 PM CST THU DEC 18 2014

...IN SOUTHWEST TEXAS AND SOUTHEAST NEW MEXICO...

CITY           SKY/WX    TMP DP  RH WIND       PRES   REMARKS
ALPINE         MOCLDY    47  31  53 S6        30.13R
ANDREWS        FAIR      54  33  46 S3        30.05R
ARTESIA        CLOUDY    54  34  47 S8        30.05R
BIG SPRING     CLOUDY    54  33  45 E5        30.07S
CARLSBAD       CLOUDY    56  32  40 W7        30.04R
DRYDEN           N/A     56  39  53 N7        30.02R
FORT STOCKTON  MOCLDY    54  33  45 SE7       30.05R
GUAD PASS      NOT AVBL
HOBBS          CLEAR     54  32  43 CALM      30.06R
MARFA          MOCLDY    45  28  53 E3        30.10R
MIDLAND AIRPK  MOCLDY    58  35  42 E5        30.06R
MIDLAND INTL   MOCLDY    54  34  46 E7        30.04R
ODESSA         MOCLDY    56  31  38 E6        30.06R
PECOS          CLOUDY    54  32  42 CALM      30.04R HAZE
PRESIDIO       FAIR      57  32  38 CALM      30.01F
SEMINOLE       CLOUDY    52  31  45 CALM      30.06R
SNYDER         CLOUDY    48  37  65 E14       30.09R
WINK           CLOUDY    55  30  38 E3        30.03R
$$
...OTHER STATIONS IN TEXAS...

CITY           SKY/WX    TMP DP  RH WIND       PRES   REMARKS
ABILENE        CLOUDY    49  41  74 NE9       30.10R
AMARILLO       MOCLDY    33  28  81 E7        30.11S WCI  27
AUSTIN         CLOUDY    56  53  90 NE9G21    30.06S FOG
BROWNSVILLE    CLOUDY    72  67  84 SE8       29.97R
CORPUS CHRISTI CLOUDY    70  67  90 SE8       29.98R
DALLAS FTW     CLOUDY    48  43  82 NE8       30.14R
DEL RIO        CLOUDY    62  54  74 NW3       29.99R
EL PASO        LGT RAIN  49  39  68 W22G37    30.08R
HOUSTON INT    CLOUDY    63  60  90 E9        30.07R
LUBBOCK        CLOUDY    43  35  73 E10       30.07R WCI  37
SAN ANGELO     CLOUDY    56  38  50 E6        30.06R
SAN ANTONIO    CLOUDY    61  57  87 NE13      30.03R
WACO           CLOUDY    49  46  90 NE10      30.13R
WICHITA FALLS  NOT AVBL
$$
...OTHER LOCATIONS IN NEW MEXICO...

CITY           SKY/WX    TMP DP  RH WIND       PRES   REMARKS
ALAMAGORDO     CLOUDY    46  37  71 SE7       30.08R
ALBUQUERQUE    CLOUDY    40  28  62 NW5       30.11R WCI  37
CANNON AFB     CLOUDY    46  21  36 W3        30.05R
CLOVIS         CLOUDY    41  28  60 E9        30.06R WCI  35
HOLLOMAN AFB   DRIZZLE   49  38  65 E8        30.07R
ROSWELL        CLOUDY    51  31  46 N5        30.03R
RUIDOSO        CLOUDY    37  28  70 W3        30.10R
SANTA FE       CLOUDY    33  24  69 CALM      30.07S
TRUTH OR CONSE LGT RAIN  43  39  86 E5        30.08R
TUCUMCARI      CLOUDY    43  30  60 E5        30.04S
$$

USA.gov is the U.S. government's official web portal to all federal, state and local government web resources and services.